Main page
METAR-TAF:

METAR-TAF

Airports :

Brooks County Airport

Falfurrias, Texas, United States

latitude: 27-12-24N, longitude: 098-07-16W, elevation: 112 ft

Current weather observation

The report was made 24 minutes ago, at 02:15 UTC
Wind 13 mph from the North with gusts up to 21 mph
Temperature 50°F
Humidity 87%
Pressure 30.50 in. Hg
Visibility: 5 miles
Broken clouds at a height of 800 ft
Overcast at a height of 1500 ft

METAR: KBKS 210215Z AUTO 35011G18KT 5SM BKN008 OVC015 10/08 A3050 RMK AO1 T00970082

Time: 20:39 (02:39 UTC)


TAF: missing

Weather observations and forecasts of more than 4000 airports (METAR and TAF reports).

The available stations are represented by yellow and red dots on the map.

Hover mouse over dot to see the name of the station.

Then click to see weather observations and forecasts.

To change the map : click on the green buttons with a black cross to zoom in, on the green button with a dash to zoom out, or on the green arrows for adjacent maps.


METAR-TAF: